Find WHDW 02-08

NORAD ID: 62978 Int'l Des: 2025-030 Owner: ZXW Country: CN Constellation: xingwang operational
LEOCIRCULAR

Current View

Loading 3D Globe...

About WHDW 02-08

Description loading...

Upcoming Passes

Passes for default location (London). Set your location on the main map for personalized predictions.

Altitude History

Loading altitude history...

Two-Line Element Set

1 62978U 25030H 26149.98341071 -.00000102 00000-0 48073-4 0 9997
2 62978 50.0075 300.8163 0001263 109.0058 251.0951 13.29324640 63441
Epoch: May 29, 2026 • Age: 16 hours

Current Status

Altitude 1161.5 km
Velocity 7.27 km/s
Sub-Earth Point -37.17°S, 41.64°E
Launch Date Feb 11, 2025
Age 1.2 years
Type other

Technical Details

Classification Payload
Mass 700.00 kg
Dry Mass 700.00 kg
Total Mass 700.00 kg
Length 3.00 m
Diameter 1.00 m
Span 10.00 m
Shape Box + 2 Pan
Manufacturer CAST
Bus Type Xingwang C
Phase Status In Orbit
Owner/State ZXW/CN

Most Searched